Change the Weather History Date:

Wednesday, March 26, 2014

  Actual Average Record
Temperature  
Mean Temperature 30 °F -  
Max Temperature 36 °F 48 °F 69 °F (1986)
Min Temperature 25 °F 34 °F 25 °F (1972)
Degree Days  
Heating Degree Days 34    
Moisture  
Dew Point 9 °F    
Average Humidity 39    
Maximum Humidity 54    
Minimum Humidity 24    
Precipitation  
Precipitation 0.00 in - - ()
Sea Level Pressure  
Sea Level Pressure 29.84 in    
Wind  
Wind Speed 15 mph (NNW)    
Max Wind Speed 26 mph    
Max Gust Speed 40 mph    
Visibility 10 miles    
Events      
Averages and records for this station are not official NWS values.
T = Trace of Precipitation, MM = Missing Value Source: NWS Daily Summary

Daily Weather History Graph

Daily Weather History Graph

Search for Another Location

Airport or City:

Trip Planner

Search our weather history database for the weather conditions in past years. The results will help you decide how hot, cold, wet, or windy it might be!

Date:

Astronomy

Mar. 26, 2014 Rise Set
Actual Time 6:44 AM EDT 7:10 PM EDT
Civil Twilight 6:17 AM EDT 7:37 PM EDT
Nautical Twilight 5:44 AM EDT 8:10 PM EDT
Astronomical Twilight 5:11 AM EDT 8:43 PM EDT
Moon 3:54 AM EDT (3/26) 2:43 PM EDT (3/26)
Length of Visible Light 13h 20m
Length of Day
12h 25m
Waning Crescent, 22% of the Moon is Illuminated
Mar 26
Waning Crescent
Mar 30
New
Apr 7
First Quarter
Apr 15
Full
Apr 22
Last Quarter

Hourly Weather History & Observations

Time (EDT) Temp. Windchill Dew Point Humidity Pressure Visibility Wind Dir Wind Speed Gust Speed Precip Events Conditions
12:53 AM 33.1 °F 26.9 °F 17.1 °F 52% 29.82 in 10.0 mi North 6.9 mph - N/A   Overcast
1:53 AM 33.1 °F 27.7 °F 17.1 °F 52% 29.82 in 10.0 mi North 5.8 mph - N/A   Overcast
2:53 AM 32.0 °F 21.2 °F 17.1 °F 54% 29.80 in 10.0 mi North 16.1 mph 23.0 mph N/A   Overcast
3:53 AM 32.0 °F 21.6 °F 15.1 °F 50% 29.76 in 10.0 mi North 15.0 mph 25.3 mph N/A   Overcast
4:53 AM 32.0 °F 20.5 °F 15.1 °F 50% 29.73 in 10.0 mi North 18.4 mph 27.6 mph N/A   Overcast
5:53 AM 32.0 °F 19.2 °F 15.1 °F 50% 29.71 in 10.0 mi North 23.0 mph 32.2 mph N/A   Overcast
6:53 AM 32.0 °F 20.8 °F 14.0 °F 48% 29.72 in 10.0 mi North 17.3 mph 28.8 mph N/A   Overcast
7:53 AM 32.0 °F 22.5 °F 14.0 °F 48% 29.73 in 10.0 mi North 12.7 mph - N/A   Overcast
8:53 AM 33.1 °F 23.4 °F 14.0 °F 46% 29.73 in 10.0 mi NNW 13.8 mph 25.3 mph N/A   Overcast
9:53 AM 33.1 °F 21.2 °F 14.0 °F 46% 29.75 in 10.0 mi NNW 20.7 mph 32.2 mph N/A   Clear
10:53 AM 33.1 °F 23.0 °F 12.9 °F 43% 29.75 in 10.0 mi NNW 15.0 mph 34.5 mph N/A   Overcast
11:53 AM 34.0 °F 22.4 °F 10.9 °F 38% 29.75 in 10.0 mi NW 20.7 mph 38.0 mph N/A   Overcast
12:53 PM 34.0 °F 21.0 °F 5.0 °F 30% 29.75 in 10.0 mi NNW 26.5 mph 40.3 mph N/A   Mostly Cloudy
1:53 PM 35.1 °F 24.8 °F 5.0 °F 28% 29.78 in 10.0 mi NW 17.3 mph 34.5 mph N/A   Mostly Cloudy
2:53 PM 35.1 °F 24.8 °F 3.9 °F 27% 29.78 in 10.0 mi NW 17.3 mph 34.5 mph N/A   Mostly Cloudy
3:53 PM 36.0 °F 24.7 °F 1.9 °F 24% 29.80 in 10.0 mi NW 21.9 mph 35.7 mph N/A   Mostly Cloudy
4:53 PM 35.1 °F 24.1 °F 6.1 °F 30% 29.83 in 10.0 mi NW 19.6 mph 36.8 mph N/A   Scattered Clouds
5:53 PM 33.1 °F 22.2 °F 6.1 °F 32% 29.89 in 10.0 mi NW 17.3 mph 32.2 mph N/A   Scattered Clouds
6:53 PM 30.9 °F 18.7 °F 3.0 °F 31% 29.94 in 10.0 mi NW 19.6 mph 28.8 mph N/A   Partly Cloudy
7:53 PM 28.9 °F 18.6 °F -0.0 °F 29% 30.00 in 10.0 mi NNW 12.7 mph 38.0 mph N/A   Clear
8:53 PM 28.0 °F 14.9 °F -2.0 °F 27% 30.05 in 10.0 mi NW 19.6 mph 32.2 mph N/A   Clear
9:53 PM 26.1 °F 12.3 °F -0.0 °F 32% 30.08 in 10.0 mi NW 19.6 mph 35.7 mph N/A   Clear
10:53 PM 25.0 °F 13.1 °F 1.0 °F 36% 30.12 in 10.0 mi NW 13.8 mph 27.6 mph N/A   Clear
11:53 PM 25.0 °F 13.6 °F 3.0 °F 39% 30.16 in 10.0 mi NW 12.7 mph 26.5 mph N/A   Clear